Year,Month,Day,Hour,Minute,Value (Times are PST for temperature in C)
2008,03,24,00,00,3.00
2008,03,24,00,01,2.90
2008,03,24,00,02,2.90
2008,03,24,00,03,2.90
2008,03,24,00,04,3.00
2008,03,24,00,05,3.20
2008,03,24,00,06,3.30
2008,03,24,00,07,3.50
2008,03,24,00,08,3.50
2008,03,24,00,09,3.50
2008,03,24,00,10,3.40
2008,03,24,00,11,3.30
2008,03,24,00,12,3.30
2008,03,24,00,13,3.30
2008,03,24,00,14,3.30
2008,03,24,00,15,3.40
2008,03,24,00,16,3.50
2008,03,24,00,17,3.60
2008,03,24,00,18,3.70
2008,03,24,00,19,3.70
2008,03,24,00,20,3.70
2008,03,24,00,21,3.70
2008,03,24,00,22,3.70
2008,03,24,00,23,3.80
2008,03,24,00,24,3.90
2008,03,24,00,25,4.00
2008,03,24,00,26,4.10
2008,03,24,00,27,4.10
2008,03,24,00,28,4.10
2008,03,24,00,29,4.10
2008,03,24,00,30,4.00
2008,03,24,00,31,4.00
2008,03,24,00,32,3.90
2008,03,24,00,33,3.90
2008,03,24,00,34,3.90
2008,03,24,00,35,4.00
2008,03,24,00,36,4.00
2008,03,24,00,37,4.10
2008,03,24,00,38,4.10
2008,03,24,00,39,4.20
2008,03,24,00,40,4.30
2008,03,24,00,41,4.30
2008,03,24,00,42,4.30
2008,03,24,00,43,4.30
2008,03,24,00,44,4.30
2008,03,24,00,45,4.20
2008,03,24,00,46,4.20
2008,03,24,00,47,4.10
2008,03,24,00,48,3.90
2008,03,24,00,49,3.80
2008,03,24,00,50,3.70
2008,03,24,00,51,3.70
2008,03,24,00,52,3.60
2008,03,24,00,53,3.50
2008,03,24,00,54,3.40
2008,03,24,00,55,3.40
2008,03,24,00,56,3.30
2008,03,24,00,57,3.30
2008,03,24,00,58,3.20
2008,03,24,00,59,3.10
2008,03,24,01,00,3.10
2008,03,24,01,01,3.00
2008,03,24,01,02,3.00
2008,03,24,01,03,2.90
2008,03,24,01,04,2.90
2008,03,24,01,05,2.80
2008,03,24,01,06,2.80
2008,03,24,01,07,2.80
2008,03,24,01,08,2.70
2008,03,24,01,09,2.70
2008,03,24,01,10,2.60
2008,03,24,01,11,2.50
2008,03,24,01,12,2.50
2008,03,24,01,13,2.40
2008,03,24,01,14,2.40
2008,03,24,01,15,2.40
2008,03,24,01,16,2.30
2008,03,24,01,17,2.30
2008,03,24,01,18,2.20
2008,03,24,01,19,2.30
2008,03,24,01,20,2.30
2008,03,24,01,21,2.30
2008,03,24,01,22,2.30
2008,03,24,01,23,2.30
2008,03,24,01,24,2.30
2008,03,24,01,25,2.30
2008,03,24,01,26,2.30
2008,03,24,01,27,2.30
2008,03,24,01,28,2.40
2008,03,24,01,29,2.40
2008,03,24,01,30,2.40
2008,03,24,01,31,2.40
2008,03,24,01,32,2.40
2008,03,24,01,33,2.30
2008,03,24,01,34,2.30
2008,03,24,01,35,2.30
2008,03,24,01,36,2.30
2008,03,24,01,37,2.30
2008,03,24,01,38,2.40
2008,03,24,01,39,2.50
2008,03,24,01,40,2.50
2008,03,24,01,41,2.60
2008,03,24,01,42,2.60
2008,03,24,01,43,2.70
2008,03,24,01,44,2.70
2008,03,24,01,45,2.70
2008,03,24,01,46,2.80
2008,03,24,01,47,2.80
2008,03,24,01,48,2.70
2008,03,24,01,49,2.70
2008,03,24,01,50,2.70
2008,03,24,01,51,2.70
2008,03,24,01,52,2.70
2008,03,24,01,53,2.60
2008,03,24,01,54,2.60
2008,03,24,01,55,2.60
2008,03,24,01,56,2.50
2008,03,24,01,57,2.50
2008,03,24,01,58,2.40
2008,03,24,01,59,2.40
2008,03,24,02,00,2.30
2008,03,24,02,01,2.30
2008,03,24,02,02,2.20
2008,03,24,02,03,2.20
2008,03,24,02,04,2.10
2008,03,24,02,05,2.00
2008,03,24,02,06,1.90
2008,03,24,02,07,1.90
2008,03,24,02,08,1.80
2008,03,24,02,09,1.80
2008,03,24,02,10,1.70
2008,03,24,02,11,1.70
2008,03,24,02,12,1.70
2008,03,24,02,13,1.70
2008,03,24,02,14,1.60
2008,03,24,02,15,1.60
2008,03,24,02,16,1.60
2008,03,24,02,17,1.50
2008,03,24,02,18,1.50
2008,03,24,02,19,1.50
2008,03,24,02,20,1.50
2008,03,24,02,21,1.40
2008,03,24,02,22,1.40
2008,03,24,02,23,1.30
2008,03,24,02,24,1.30
2008,03,24,02,25,1.30
2008,03,24,02,26,1.30
2008,03,24,02,27,1.20
2008,03,24,02,28,1.20
2008,03,24,02,29,1.20
2008,03,24,02,30,1.20
2008,03,24,02,31,1.20
2008,03,24,02,32,1.10
2008,03,24,02,33,1.10
2008,03,24,02,34,1.10
2008,03,24,02,35,1.10
2008,03,24,02,36,1.20
2008,03,24,02,37,1.20
2008,03,24,02,38,1.30
2008,03,24,02,39,1.30
2008,03,24,02,40,1.30
2008,03,24,02,41,1.20
2008,03,24,02,42,1.20
2008,03,24,02,43,1.20
2008,03,24,02,44,1.20
2008,03,24,02,45,1.10
2008,03,24,02,46,1.10
2008,03,24,02,47,1.10
2008,03,24,02,48,1.00
2008,03,24,02,49,1.00
2008,03,24,02,50,1.00
2008,03,24,02,51,1.00
2008,03,24,02,52,1.00
2008,03,24,02,53,1.00
2008,03,24,02,54,1.10
2008,03,24,02,55,1.10
2008,03,24,02,56,1.20
2008,03,24,02,57,1.20
2008,03,24,02,58,1.10
2008,03,24,02,59,1.10
2008,03,24,03,00,1.10
2008,03,24,03,01,1.10
2008,03,24,03,02,1.10
2008,03,24,03,03,1.00
2008,03,24,03,04,1.00
2008,03,24,03,05,0.90
2008,03,24,03,06,0.90
2008,03,24,03,07,0.90
2008,03,24,03,08,0.90
2008,03,24,03,09,0.90
2008,03,24,03,10,0.90
2008,03,24,03,11,0.90
2008,03,24,03,12,0.80
2008,03,24,03,13,0.80
2008,03,24,03,14,0.80
2008,03,24,03,15,0.80
2008,03,24,03,16,0.80
2008,03,24,03,17,0.80
2008,03,24,03,18,0.80
2008,03,24,03,19,0.70
2008,03,24,03,20,0.70
2008,03,24,03,21,0.70
2008,03,24,03,22,0.60
2008,03,24,03,23,0.60
2008,03,24,03,24,0.60
2008,03,24,03,25,0.50
2008,03,24,03,26,0.50
2008,03,24,03,27,0.50
2008,03,24,03,28,0.50
2008,03,24,03,29,0.50
2008,03,24,03,30,0.40
2008,03,24,03,31,0.40
2008,03,24,03,32,0.40
2008,03,24,03,33,0.40
2008,03,24,03,34,0.40
2008,03,24,03,35,0.40
2008,03,24,03,36,0.50
2008,03,24,03,37,0.60
2008,03,24,03,38,0.60
2008,03,24,03,39,0.70
2008,03,24,03,40,0.70
2008,03,24,03,41,0.80
2008,03,24,03,42,0.80
2008,03,24,03,43,0.80
2008,03,24,03,44,0.80
2008,03,24,03,45,0.70
2008,03,24,03,46,0.70
2008,03,24,03,47,0.70
2008,03,24,03,48,0.70
2008,03,24,03,49,0.70
2008,03,24,03,50,0.70
2008,03,24,03,51,1.00
2008,03,24,03,52,1.30
2008,03,24,03,53,1.40
2008,03,24,03,54,1.60
2008,03,24,03,55,1.80
2008,03,24,03,56,1.80
2008,03,24,03,57,1.80
2008,03,24,03,58,1.80
2008,03,24,03,59,1.90
2008,03,24,04,00,1.80
2008,03,24,04,01,1.80
2008,03,24,04,02,1.80
2008,03,24,04,03,1.70
2008,03,24,04,04,1.70
2008,03,24,04,05,1.70
2008,03,24,04,06,1.70
2008,03,24,04,07,1.70
2008,03,24,04,08,1.80
2008,03,24,04,09,1.90
2008,03,24,04,10,1.90
2008,03,24,04,11,2.00
2008,03,24,04,12,2.00
2008,03,24,04,13,2.10
2008,03,24,04,14,2.20
2008,03,24,04,15,2.20
2008,03,24,04,16,2.30
2008,03,24,04,17,2.30
2008,03,24,04,18,2.40
2008,03,24,04,19,2.40
2008,03,24,04,20,2.50
2008,03,24,04,21,2.50
2008,03,24,04,22,2.50
2008,03,24,04,23,2.60
2008,03,24,04,24,2.60
2008,03,24,04,25,2.50
2008,03,24,04,26,2.50
2008,03,24,04,27,2.40
2008,03,24,04,28,2.40
2008,03,24,04,29,2.40
2008,03,24,04,30,2.30
2008,03,24,04,31,2.30
2008,03,24,04,32,2.30
2008,03,24,04,33,2.20
2008,03,24,04,34,2.20
2008,03,24,04,35,2.10
2008,03,24,04,36,2.10
2008,03,24,04,37,2.00
2008,03,24,04,38,1.90
2008,03,24,04,39,1.80
2008,03,24,04,40,1.80
2008,03,24,04,41,1.70
2008,03,24,04,42,1.60
2008,03,24,04,43,1.60
2008,03,24,04,44,1.50
2008,03,24,04,45,1.50
2008,03,24,04,46,1.60
2008,03,24,04,47,1.60
2008,03,24,04,48,1.60
2008,03,24,04,49,1.60
2008,03,24,04,50,1.60
2008,03,24,04,51,1.50
2008,03,24,04,52,1.50
2008,03,24,04,53,1.40
2008,03,24,04,54,1.40
2008,03,24,04,55,1.40
2008,03,24,04,56,1.40
2008,03,24,04,57,1.40
2008,03,24,04,58,1.40
2008,03,24,04,59,1.40
2008,03,24,05,00,1.40
2008,03,24,05,01,1.40
2008,03,24,05,02,1.50
2008,03,24,05,03,1.60
2008,03,24,05,04,1.70
2008,03,24,05,05,1.70
2008,03,24,05,06,1.80
2008,03,24,05,07,1.80
2008,03,24,05,08,1.90
2008,03,24,05,09,1.90
2008,03,24,05,10,1.90
2008,03,24,05,11,2.00
2008,03,24,05,12,2.00
2008,03,24,05,13,2.20
2008,03,24,05,14,2.30
2008,03,24,05,15,2.40
2008,03,24,05,16,2.50
2008,03,24,05,17,2.50
2008,03,24,05,18,2.50
2008,03,24,05,19,2.40
2008,03,24,05,20,2.40
2008,03,24,05,21,2.30
2008,03,24,05,22,2.30
2008,03,24,05,23,2.20
2008,03,24,05,24,2.20
2008,03,24,05,25,2.20
2008,03,24,05,26,2.10
2008,03,24,05,27,2.10
2008,03,24,05,28,2.00
2008,03,24,05,29,2.00
2008,03,24,05,30,1.90
2008,03,24,05,31,1.90
2008,03,24,05,32,1.80
2008,03,24,05,33,1.80
2008,03,24,05,34,1.90
2008,03,24,05,35,1.90
2008,03,24,05,36,2.00
2008,03,24,05,37,2.00
2008,03,24,05,38,2.10
2008,03,24,05,39,2.10
2008,03,24,05,40,2.10
2008,03,24,05,41,2.10
2008,03,24,05,42,2.10
2008,03,24,05,43,2.20
2008,03,24,05,44,2.20
2008,03,24,05,45,2.30
2008,03,24,05,46,2.30
2008,03,24,05,47,2.40
2008,03,24,05,48,2.40
2008,03,24,05,49,2.50
2008,03,24,05,50,2.60
2008,03,24,05,51,2.60
2008,03,24,05,52,2.70
2008,03,24,05,53,2.70
2008,03,24,05,54,2.80
2008,03,24,05,55,2.80
2008,03,24,05,56,2.90
2008,03,24,05,57,2.90
2008,03,24,05,58,2.90
2008,03,24,05,59,2.90
2008,03,24,06,00,3.00
2008,03,24,06,01,3.00
2008,03,24,06,02,3.00
2008,03,24,06,03,3.00
2008,03,24,06,04,3.00
2008,03,24,06,05,3.00
2008,03,24,06,06,3.10
2008,03,24,06,07,3.00
2008,03,24,06,08,3.00
2008,03,24,06,09,3.00
2008,03,24,06,10,3.00
2008,03,24,06,11,2.90
2008,03,24,06,12,2.90
2008,03,24,06,13,2.90
2008,03,24,06,14,2.90
2008,03,24,06,15,2.80
2008,03,24,06,16,2.80
2008,03,24,06,17,2.80
2008,03,24,06,18,2.80
2008,03,24,06,19,2.80
2008,03,24,06,20,2.80
2008,03,24,06,21,2.80
2008,03,24,06,22,2.80
2008,03,24,06,23,2.70
2008,03,24,06,24,2.70
2008,03,24,06,25,2.70
2008,03,24,06,26,2.70
2008,03,24,06,27,2.70
2008,03,24,06,28,2.70
2008,03,24,06,29,2.70
2008,03,24,06,30,2.70
2008,03,24,06,31,2.70
2008,03,24,06,32,2.70
2008,03,24,06,33,2.70
2008,03,24,06,34,2.70
2008,03,24,06,35,2.70
2008,03,24,06,36,2.70
2008,03,24,06,37,2.70
2008,03,24,06,38,2.70
2008,03,24,06,39,2.70
2008,03,24,06,40,2.70
2008,03,24,06,41,2.60
2008,03,24,06,42,2.60
2008,03,24,06,43,2.60
2008,03,24,06,44,2.60
2008,03,24,06,45,2.60
2008,03,24,06,46,2.60
2008,03,24,06,47,2.60
2008,03,24,06,48,2.70
2008,03,24,06,49,2.70
2008,03,24,06,50,2.70
2008,03,24,06,51,2.70
2008,03,24,06,52,2.70
2008,03,24,06,53,2.70
2008,03,24,06,54,2.70
2008,03,24,06,55,2.70
2008,03,24,06,56,2.80
2008,03,24,06,57,2.80
2008,03,24,06,58,2.80
2008,03,24,06,59,2.90
2008,03,24,07,00,3.00
2008,03,24,07,01,3.10
2008,03,24,07,02,3.10
2008,03,24,07,03,3.20
2008,03,24,07,04,3.20
2008,03,24,07,05,3.20
2008,03,24,07,06,3.20
2008,03,24,07,07,3.30
2008,03,24,07,08,3.30
2008,03,24,07,09,3.30
2008,03,24,07,10,3.30
2008,03,24,07,11,3.30
2008,03,24,07,12,3.30
2008,03,24,07,13,3.30
2008,03,24,07,14,3.30
2008,03,24,07,15,3.30
2008,03,24,07,16,3.30
2008,03,24,07,17,3.30
2008,03,24,07,18,3.30
2008,03,24,07,19,3.20
2008,03,24,07,20,3.20
2008,03,24,07,21,3.20
2008,03,24,07,22,3.20
2008,03,24,07,23,3.20
2008,03,24,07,24,3.20
2008,03,24,07,25,3.20
2008,03,24,07,26,3.10
2008,03,24,07,27,3.10
2008,03,24,07,28,3.10
2008,03,24,07,29,3.10
2008,03,24,07,30,3.10
2008,03,24,07,31,3.10
2008,03,24,07,32,3.10
2008,03,24,07,33,3.10
2008,03,24,07,34,3.10
2008,03,24,07,35,3.10
2008,03,24,07,36,3.00
2008,03,24,07,37,3.00
2008,03,24,07,38,3.00
2008,03,24,07,39,3.00
2008,03,24,07,40,3.00
2008,03,24,07,41,3.00
2008,03,24,07,42,3.00
2008,03,24,07,43,2.90
2008,03,24,07,44,3.00
2008,03,24,07,45,3.00
2008,03,24,07,46,3.00
2008,03,24,07,47,3.00
2008,03,24,07,48,3.10
2008,03,24,07,49,3.10
2008,03,24,07,50,3.00
2008,03,24,07,51,3.00
2008,03,24,07,52,3.00
2008,03,24,07,53,3.00
2008,03,24,07,54,3.00
2008,03,24,07,55,3.00
2008,03,24,07,56,3.10
2008,03,24,07,57,3.10
2008,03,24,07,58,3.10
2008,03,24,07,59,3.10
2008,03,24,08,00,3.10
2008,03,24,08,01,3.10
2008,03,24,08,02,3.10
2008,03,24,08,03,3.10
2008,03,24,08,04,3.20
2008,03,24,08,05,3.20
2008,03,24,08,06,3.20
2008,03,24,08,07,3.20
2008,03,24,08,08,3.20
2008,03,24,08,09,3.30
2008,03,24,08,10,3.30
2008,03,24,08,11,3.40
2008,03,24,08,12,3.40
2008,03,24,08,13,3.50
2008,03,24,08,14,3.50
2008,03,24,08,15,3.60
2008,03,24,08,16,3.60
2008,03,24,08,17,3.60
2008,03,24,08,18,3.60
2008,03,24,08,19,3.70
2008,03,24,08,20,3.70
2008,03,24,08,21,3.70
2008,03,24,08,22,3.70
2008,03,24,08,23,3.70
2008,03,24,08,24,3.70
2008,03,24,08,25,3.70
2008,03,24,08,26,3.60
2008,03,24,08,27,3.60
2008,03,24,08,28,3.60
2008,03,24,08,29,3.60
2008,03,24,08,30,3.60
2008,03,24,08,31,3.60
2008,03,24,08,32,3.60
2008,03,24,08,33,3.60
2008,03,24,08,34,3.70
2008,03,24,08,35,3.70
2008,03,24,08,36,3.70
2008,03,24,08,37,3.80
2008,03,24,08,38,3.90
2008,03,24,08,39,4.00
2008,03,24,08,40,4.10
2008,03,24,08,41,4.20
2008,03,24,08,42,4.30
2008,03,24,08,43,4.40
2008,03,24,08,44,4.50
2008,03,24,08,45,4.50
2008,03,24,08,46,4.60
2008,03,24,08,47,4.70
2008,03,24,08,48,4.70
2008,03,24,08,49,4.70
2008,03,24,08,50,4.70
2008,03,24,08,51,4.70
2008,03,24,08,52,4.70
2008,03,24,08,53,4.60
2008,03,24,08,54,4.60
2008,03,24,08,55,4.60
2008,03,24,08,56,4.60
2008,03,24,08,57,4.70
2008,03,24,08,58,4.70
2008,03,24,08,59,4.70
2008,03,24,09,00,4.70
2008,03,24,09,01,4.60
2008,03,24,09,02,4.70
2008,03,24,09,03,4.60
2008,03,24,09,04,4.70
2008,03,24,09,05,4.70
2008,03,24,09,06,4.70
2008,03,24,09,07,4.70
2008,03,24,09,08,4.70
2008,03,24,09,09,4.70
2008,03,24,09,10,4.70
2008,03,24,09,11,4.70
2008,03,24,09,12,4.70
2008,03,24,09,13,4.70
2008,03,24,09,14,4.70
2008,03,24,09,15,4.70
2008,03,24,09,16,4.70
2008,03,24,09,17,4.80
2008,03,24,09,18,4.80
2008,03,24,09,19,4.80
2008,03,24,09,20,4.80
2008,03,24,09,21,4.90
2008,03,24,09,22,4.90
2008,03,24,09,23,4.90
2008,03,24,09,24,4.90
2008,03,24,09,25,4.90
2008,03,24,09,26,5.00
2008,03,24,09,27,5.00
2008,03,24,09,28,5.00
2008,03,24,09,29,5.00
2008,03,24,09,30,5.00
2008,03,24,09,31,5.00
2008,03,24,09,32,5.00
2008,03,24,09,33,5.10
2008,03,24,09,34,5.10
2008,03,24,09,35,5.10
2008,03,24,09,36,5.10
2008,03,24,09,37,5.10
2008,03,24,09,38,5.10
2008,03,24,09,39,5.10
2008,03,24,09,40,5.10
2008,03,24,09,41,5.20
2008,03,24,09,42,5.20
2008,03,24,09,43,5.20
2008,03,24,09,44,5.20
2008,03,24,09,45,5.20
2008,03,24,09,46,5.30
2008,03,24,09,47,5.30
2008,03,24,09,48,5.30
2008,03,24,09,49,5.30
2008,03,24,09,50,5.30
2008,03,24,09,51,5.30
2008,03,24,09,52,5.40
2008,03,24,09,53,5.40
2008,03,24,09,54,5.40
2008,03,24,09,55,5.40
2008,03,24,09,56,5.40
2008,03,24,09,57,5.50
2008,03,24,09,58,5.60
2008,03,24,09,59,5.60
2008,03,24,10,00,5.60
2008,03,24,10,01,5.70
2008,03,24,10,02,5.70
2008,03,24,10,03,5.70
2008,03,24,10,04,5.70
2008,03,24,10,05,5.70
2008,03,24,10,06,5.80
2008,03,24,10,07,5.80
2008,03,24,10,08,5.80
2008,03,24,10,09,5.90
2008,03,24,10,10,5.90
2008,03,24,10,11,5.90
2008,03,24,10,12,5.90
2008,03,24,10,13,6.00
2008,03,24,10,14,6.00
2008,03,24,10,15,6.00
2008,03,24,10,16,6.10
2008,03,24,10,17,6.10
2008,03,24,10,18,6.10
2008,03,24,10,19,6.10
2008,03,24,10,20,6.10
2008,03,24,10,21,6.10
2008,03,24,10,22,6.10
2008,03,24,10,23,6.20
2008,03,24,10,24,6.20
2008,03,24,10,25,6.20
2008,03,24,10,26,6.20
2008,03,24,10,27,6.30
2008,03,24,10,28,6.30
2008,03,24,10,29,6.30
2008,03,24,10,30,6.30
2008,03,24,10,31,6.30
2008,03,24,10,32,6.30
2008,03,24,10,33,6.30
2008,03,24,10,34,6.30
2008,03,24,10,35,6.30
2008,03,24,10,36,6.40
2008,03,24,10,37,6.40
2008,03,24,10,38,6.50
2008,03,24,10,39,6.60
2008,03,24,10,40,6.60
2008,03,24,10,41,6.70
2008,03,24,10,42,6.80
2008,03,24,10,43,6.80
2008,03,24,10,44,6.80
2008,03,24,10,45,6.80
2008,03,24,10,46,6.80
2008,03,24,10,47,6.80
2008,03,24,10,48,6.80
2008,03,24,10,49,6.80
2008,03,24,10,50,6.80
2008,03,24,10,51,6.90
2008,03,24,10,52,6.90
2008,03,24,10,53,7.00
2008,03,24,10,54,7.00
2008,03,24,10,55,7.10
2008,03,24,10,56,7.10
2008,03,24,10,57,7.20
2008,03,24,10,58,7.20
2008,03,24,10,59,7.30
2008,03,24,11,00,7.40
2008,03,24,11,01,7.40
2008,03,24,11,02,7.50
2008,03,24,11,03,7.60
2008,03,24,11,04,7.70
2008,03,24,11,05,7.70
2008,03,24,11,06,7.70
2008,03,24,11,07,7.70
2008,03,24,11,08,7.60
2008,03,24,11,09,7.70
2008,03,24,11,10,7.70
2008,03,24,11,11,7.70
2008,03,24,11,12,7.80
2008,03,24,11,13,7.80
2008,03,24,11,14,7.80
2008,03,24,11,15,7.80
2008,03,24,11,16,7.70
2008,03,24,11,17,7.70
2008,03,24,11,18,7.70
2008,03,24,11,19,7.70
2008,03,24,11,20,7.70
2008,03,24,11,21,7.60
2008,03,24,11,22,7.60
2008,03,24,11,23,7.50
2008,03,24,11,24,7.50
2008,03,24,11,25,7.40
2008,03,24,11,26,7.40
2008,03,24,11,27,7.40
2008,03,24,11,28,7.40
2008,03,24,11,29,7.40
2008,03,24,11,30,7.50
2008,03,24,11,31,7.60
2008,03,24,11,32,7.70
2008,03,24,11,33,7.80
2008,03,24,11,34,8.00
2008,03,24,11,35,8.10
2008,03,24,11,36,8.10
2008,03,24,11,37,8.10
2008,03,24,11,38,8.10
2008,03,24,11,39,8.00
2008,03,24,11,40,8.00
2008,03,24,11,41,8.00
2008,03,24,11,42,7.90
2008,03,24,11,43,7.90
2008,03,24,11,44,8.00
2008,03,24,11,45,8.10
2008,03,24,11,46,8.10
2008,03,24,11,47,8.20
2008,03,24,11,48,8.30
2008,03,24,11,49,8.40
2008,03,24,11,50,8.30
2008,03,24,11,51,8.30
2008,03,24,11,52,8.20
2008,03,24,11,53,8.20
2008,03,24,11,54,8.20
2008,03,24,11,55,8.20
2008,03,24,11,56,8.20
2008,03,24,11,57,8.20
2008,03,24,11,58,8.10
2008,03,24,11,59,8.10
2008,03,24,12,00,8.10
2008,03,24,12,01,8.20
2008,03,24,12,02,8.30
2008,03,24,12,03,8.20
2008,03,24,12,04,8.20
2008,03,24,12,05,8.10
2008,03,24,12,06,8.10
2008,03,24,12,07,8.10
2008,03,24,12,08,8.00
2008,03,24,12,09,7.90
2008,03,24,12,10,7.80
2008,03,24,12,11,7.80
2008,03,24,12,12,7.80
2008,03,24,12,13,7.80
2008,03,24,12,14,7.90
2008,03,24,12,15,7.90
2008,03,24,12,16,7.90
2008,03,24,12,17,7.80
2008,03,24,12,18,7.70
2008,03,24,12,19,7.70
2008,03,24,12,20,7.70
2008,03,24,12,21,7.70
2008,03,24,12,22,7.70
2008,03,24,12,23,7.70
2008,03,24,12,24,7.70
2008,03,24,12,25,7.80
2008,03,24,12,26,7.80
2008,03,24,12,27,7.90
2008,03,24,12,28,7.90
2008,03,24,12,29,8.00
2008,03,24,12,30,8.10
2008,03,24,12,31,8.00
2008,03,24,12,32,8.00
2008,03,24,12,33,8.00
2008,03,24,12,34,8.00
2008,03,24,12,35,8.10
2008,03,24,12,36,8.20
2008,03,24,12,37,8.30
2008,03,24,12,38,8.40
2008,03,24,12,39,8.40
2008,03,24,12,40,8.40
2008,03,24,12,41,8.40
2008,03,24,12,42,8.30
2008,03,24,12,43,8.40
2008,03,24,12,44,8.30
2008,03,24,12,45,8.30
2008,03,24,12,46,8.30
2008,03,24,12,47,8.30
2008,03,24,12,48,8.50
2008,03,24,12,49,8.60
2008,03,24,12,50,8.60
2008,03,24,12,51,8.60
2008,03,24,12,52,8.70
2008,03,24,12,53,8.80
2008,03,24,12,54,8.80
2008,03,24,12,55,8.80
2008,03,24,12,56,8.80
2008,03,24,12,57,8.80
2008,03,24,12,58,9.00
2008,03,24,12,59,9.10
2008,03,24,13,00,9.10
2008,03,24,13,01,9.30
2008,03,24,13,02,9.30
2008,03,24,13,03,9.30
2008,03,24,13,04,9.30
2008,03,24,13,05,9.30
2008,03,24,13,06,9.30
2008,03,24,13,07,9.30
2008,03,24,13,08,9.20
2008,03,24,13,09,9.10
2008,03,24,13,10,9.00
2008,03,24,13,11,9.00
2008,03,24,13,12,9.00
2008,03,24,13,13,8.90
2008,03,24,13,14,8.90
2008,03,24,13,15,8.90
2008,03,24,13,16,8.90
2008,03,24,13,17,8.90
2008,03,24,13,18,8.90
2008,03,24,13,19,8.90
2008,03,24,13,20,9.00
2008,03,24,13,21,9.00
2008,03,24,13,22,9.00
2008,03,24,13,23,9.10
2008,03,24,13,24,9.20
2008,03,24,13,25,9.30
2008,03,24,13,26,9.40
2008,03,24,13,27,9.40
2008,03,24,13,28,9.40
2008,03,24,13,29,9.50
2008,03,24,13,30,9.40
2008,03,24,13,31,9.20
2008,03,24,13,32,9.10
2008,03,24,13,33,9.10
2008,03,24,13,34,9.00
2008,03,24,13,35,8.90
2008,03,24,13,36,8.80
2008,03,24,13,37,8.70
2008,03,24,13,38,8.70
2008,03,24,13,39,8.70
2008,03,24,13,40,8.70
2008,03,24,13,41,8.70
2008,03,24,13,42,8.70
2008,03,24,13,43,8.70
2008,03,24,13,44,8.70
2008,03,24,13,45,8.70
2008,03,24,13,46,8.70
2008,03,24,13,47,8.80
2008,03,24,13,48,8.80
2008,03,24,13,49,8.80
2008,03,24,13,50,8.90
2008,03,24,13,51,8.90
2008,03,24,13,52,8.90
2008,03,24,13,53,8.90
2008,03,24,13,54,8.80
2008,03,24,13,55,8.80
2008,03,24,13,56,8.80
2008,03,24,13,57,8.80
2008,03,24,13,58,8.80
2008,03,24,13,59,8.80
2008,03,24,14,00,8.80
2008,03,24,14,01,8.90
2008,03,24,14,02,8.90
2008,03,24,14,03,9.00
2008,03,24,14,04,9.10
2008,03,24,14,05,9.10
2008,03,24,14,06,9.00
2008,03,24,14,07,9.00
2008,03,24,14,08,9.00
2008,03,24,14,09,9.00
2008,03,24,14,10,9.00
2008,03,24,14,11,9.10
2008,03,24,14,12,9.30
2008,03,24,14,13,9.30
2008,03,24,14,14,9.20
2008,03,24,14,15,9.10
2008,03,24,14,16,9.10
2008,03,24,14,17,9.10
2008,03,24,14,18,9.10
2008,03,24,14,19,9.00
2008,03,24,14,20,9.00
2008,03,24,14,21,9.00
2008,03,24,14,22,8.90
2008,03,24,14,23,8.80
2008,03,24,14,24,8.70
2008,03,24,14,25,8.60
2008,03,24,14,26,8.50
2008,03,24,14,27,8.50
2008,03,24,14,28,8.40
2008,03,24,14,29,8.40
2008,03,24,14,30,8.30
2008,03,24,14,31,8.30
2008,03,24,14,32,8.20
2008,03,24,14,33,8.10
2008,03,24,14,34,8.00
2008,03,24,14,35,7.80
2008,03,24,14,36,7.70
2008,03,24,14,37,7.60
2008,03,24,14,38,7.50
2008,03,24,14,39,7.40
2008,03,24,14,40,7.30
2008,03,24,14,41,7.30
2008,03,24,14,42,7.30
2008,03,24,14,43,7.20
2008,03,24,14,44,7.20
2008,03,24,14,45,7.20
2008,03,24,14,46,7.20
2008,03,24,14,47,7.20
2008,03,24,14,48,7.20
2008,03,24,14,49,7.30
2008,03,24,14,50,7.30
2008,03,24,14,51,7.40
2008,03,24,14,52,7.50
2008,03,24,14,53,7.60
2008,03,24,14,54,7.70
2008,03,24,14,55,7.70
2008,03,24,14,56,7.80
2008,03,24,14,57,7.80
2008,03,24,14,58,7.90
2008,03,24,14,59,7.90
2008,03,24,15,00,8.00
2008,03,24,15,01,8.00
2008,03,24,15,02,8.10
2008,03,24,15,03,8.10
2008,03,24,15,04,8.20
2008,03,24,15,05,8.20
2008,03,24,15,06,8.20
2008,03,24,15,07,8.30
2008,03,24,15,08,8.30
2008,03,24,15,09,8.40
2008,03,24,15,10,8.40
2008,03,24,15,11,8.40
2008,03,24,15,12,8.40
2008,03,24,15,13,8.40
2008,03,24,15,14,8.50
2008,03,24,15,15,8.50
2008,03,24,15,16,8.40
2008,03,24,15,17,8.30
2008,03,24,15,18,8.20
2008,03,24,15,19,8.20
2008,03,24,15,20,8.20
2008,03,24,15,21,8.30
2008,03,24,15,22,8.30
2008,03,24,15,23,8.40
2008,03,24,15,24,8.50
2008,03,24,15,25,8.50
2008,03,24,15,26,8.60
2008,03,24,15,27,8.60
2008,03,24,15,28,8.70
2008,03,24,15,29,8.70
2008,03,24,15,30,8.70
2008,03,24,15,31,8.60
2008,03,24,15,32,8.60
2008,03,24,15,33,8.60
2008,03,24,15,34,8.50
2008,03,24,15,35,8.40
2008,03,24,15,36,8.40
2008,03,24,15,37,8.30
2008,03,24,15,38,8.30
2008,03,24,15,39,8.30
2008,03,24,15,40,8.30
2008,03,24,15,41,8.30
2008,03,24,15,42,8.30
2008,03,24,15,43,8.30
2008,03,24,15,44,8.30
2008,03,24,15,45,8.40
2008,03,24,15,46,8.40
2008,03,24,15,47,8.50
2008,03,24,15,48,8.50
2008,03,24,15,49,8.40
2008,03,24,15,50,8.40
2008,03,24,15,51,8.40
2008,03,24,15,52,8.40
2008,03,24,15,53,8.40
2008,03,24,15,54,8.30
2008,03,24,15,55,8.30
2008,03,24,15,56,8.30
2008,03,24,15,57,8.30
2008,03,24,15,58,8.30
2008,03,24,15,59,8.30
2008,03,24,16,00,8.30
2008,03,24,16,01,8.30
2008,03,24,16,02,8.30
2008,03,24,16,03,8.30
2008,03,24,16,04,8.30
2008,03,24,16,05,8.30
2008,03,24,16,06,8.30
2008,03,24,16,07,8.30
2008,03,24,16,08,8.20
2008,03,24,16,09,8.20
2008,03,24,16,10,8.20
2008,03,24,16,11,8.20
2008,03,24,16,12,8.20
2008,03,24,16,13,8.10
2008,03,24,16,14,8.10
2008,03,24,16,15,8.00
2008,03,24,16,16,8.00
2008,03,24,16,17,7.90
2008,03,24,16,18,7.90
2008,03,24,16,19,7.90
2008,03,24,16,20,7.90
2008,03,24,16,21,7.90
2008,03,24,16,22,7.80
2008,03,24,16,23,7.80
2008,03,24,16,24,7.70
2008,03,24,16,25,7.70
2008,03,24,16,26,7.70
2008,03,24,16,27,7.60
2008,03,24,16,28,7.60
2008,03,24,16,29,7.60
2008,03,24,16,30,7.50
2008,03,24,16,31,7.50
2008,03,24,16,32,7.50
2008,03,24,16,33,7.40
2008,03,24,16,34,7.30
2008,03,24,16,35,7.30
2008,03,24,16,36,7.20
2008,03,24,16,37,7.20
2008,03,24,16,38,7.20
2008,03,24,16,39,7.10
2008,03,24,16,40,7.10
2008,03,24,16,41,7.00
2008,03,24,16,42,7.00
2008,03,24,16,43,7.00
2008,03,24,16,44,7.00
2008,03,24,16,45,6.90
2008,03,24,16,46,6.90
2008,03,24,16,47,6.90
2008,03,24,16,48,6.90
2008,03,24,16,49,7.00
2008,03,24,16,50,7.00
2008,03,24,16,51,7.00
2008,03,24,16,52,7.10
2008,03,24,16,53,7.10
2008,03,24,16,54,7.20
2008,03,24,16,55,7.20
2008,03,24,16,56,7.20
2008,03,24,16,57,7.20
2008,03,24,16,58,7.20
2008,03,24,16,59,7.30
2008,03,24,17,00,7.30
2008,03,24,17,01,7.30
2008,03,24,17,02,7.30
2008,03,24,17,03,7.30
2008,03,24,17,04,7.30
2008,03,24,17,05,7.30
2008,03,24,17,06,7.30
2008,03,24,17,07,7.30
2008,03,24,17,08,7.40
2008,03,24,17,09,7.40
2008,03,24,17,10,7.40
2008,03,24,17,11,7.40
2008,03,24,17,12,7.40
2008,03,24,17,13,7.40
2008,03,24,17,14,7.40
2008,03,24,17,15,7.40
2008,03,24,17,16,7.40
2008,03,24,17,17,7.50
2008,03,24,17,18,7.50
2008,03,24,17,19,7.50
2008,03,24,17,20,7.50
2008,03,24,17,21,7.60
2008,03,24,17,22,7.60
2008,03,24,17,23,7.60
2008,03,24,17,24,7.60
2008,03,24,17,25,7.60
2008,03,24,17,26,7.60
2008,03,24,17,27,7.70
2008,03,24,17,28,7.70
2008,03,24,17,29,7.70
2008,03,24,17,30,7.70
2008,03,24,17,31,7.70
2008,03,24,17,32,7.70
2008,03,24,17,33,7.60
2008,03,24,17,34,7.60
2008,03,24,17,35,7.50
2008,03,24,17,36,7.50
2008,03,24,17,37,7.40
2008,03,24,17,38,7.40
2008,03,24,17,39,7.30
2008,03,24,17,40,7.20
2008,03,24,17,41,7.20
2008,03,24,17,42,7.10
2008,03,24,17,43,7.10
2008,03,24,17,44,7.00
2008,03,24,17,45,7.00
2008,03,24,17,46,6.90
2008,03,24,17,47,6.90
2008,03,24,17,48,6.80
2008,03,24,17,49,6.80
2008,03,24,17,50,6.80
2008,03,24,17,51,6.80
2008,03,24,17,52,6.80
2008,03,24,17,53,6.80
2008,03,24,17,54,6.70
2008,03,24,17,55,6.70
2008,03,24,17,56,6.70
2008,03,24,17,57,6.70
2008,03,24,17,58,6.60
2008,03,24,17,59,6.60
2008,03,24,18,00,6.50
2008,03,24,18,01,6.40
2008,03,24,18,02,6.40
2008,03,24,18,03,6.40
2008,03,24,18,04,6.40
2008,03,24,18,05,6.40
2008,03,24,18,06,6.40